M I D A S
Marine Information and Data Acquisition System
Tripno 1668 of the Zeeleeuw from 2009-04-02 06:09:01 to 2009-04-02 15:49:45
Back to CruiseResearch ActivitiesStationsMapUnderway DataData graphs

EquipmentUnitsComments
TimeDGPSUTC
LatitudeDGPSDM.mWGS84
LongitudeDGPSDM.mWGS84
SpeedMeteo Stationm/sRelative wind speed
DirectionMeteo StationdegRelative wind direction
TemperatureMeteo Stationdeg CelciusAir temperature
PressureMeteo StationPaAtmospheric pressure
HumidityMeteo Station%Relative humidity
Missing or incorrect values are displayed as -999
Metereological data collected by the RV Zeeleeuw from 2009-04-02 05:58:47 to 2009-04-02 15:58:06
Time Latitude Longitude Speed Direction Temperature Pressure Humidity
2009-04-02 05:59 51°13.663 2°55.959 3.2 247 7.5 101860 91
2009-04-02 06:00 51°13.662 2°55.959 4.6 26 7.5 101860 90
2009-04-02 06:01 51°13.665 2°55.959 5.2 248 7.5 101860 90
2009-04-02 06:02 51°13.662 2°55.959 5.4 247 7.5 101860 90
2009-04-02 06:03 51°13.662 2°55.959 4 22 7.5 101860 91
2009-04-02 06:04 51°13.662 2°55.958 3.5 24 7.5 101860 90
2009-04-02 06:05 51°13.663 2°55.96 4.6 247 7.5 101860 90
2009-04-02 06:06 51°13.662 2°55.959 3.9 25 7.6 101860 90
2009-04-02 06:07 51°13.663 2°55.952 4.4 18 7.5 101860 90
2009-04-02 06:08 51°13.683 2°55.871 2.7 256 7.6 101860 90
2009-04-02 06:09 51°13.704 2°55.797 4.3 249 7.6 101860 90
2009-04-02 06:10 51°13.738 2°55.732 2.9 263 7.6 101860 90
2009-04-02 06:11 51°13.748 2°55.713 4 259 7.6 101860 90
2009-04-02 06:12 51°13.8 2°55.668 4.2 21 7.6 101860 90
2009-04-02 06:13 51°13.873 2°55.632 5.6 20 7.6 101860 91
2009-04-02 06:14 51°13.929 2°55.631 4.5 25 7.6 101860 90
2009-04-02 06:15 51°13.939 2°55.62 3.6 19 7.7 101860 90
2009-04-02 06:16 51°13.958 2°55.555 3.7 15 7.7 101850 90
2009-04-02 06:17 51°14.031 2°55.496 5.1 358 7.7 101850 90
2009-04-02 06:18 51°14.14 2°55.398 6.2 355 7.7 101840 90
2009-04-02 06:19 51°14.257 2°55.26 5.1 10 7.8 101850 90
2009-04-02 06:20 51°14.353 2°55.059 5.5 6 7.8 101840 90
2009-04-02 06:21 51°14.444 2°54.83 5.4 7 7.9 101850 90
2009-04-02 06:22 51°14.535 2°54.586 5.6 6 8 101850 90
2009-04-02 06:23 51°14.632 2°54.321 6.4 3 8.1 101840 90
2009-04-02 06:24 51°14.735 2°54.054 7.4 6 8.1 101850 90
2009-04-02 06:25 51°14.836 2°53.787 6.1 7 8.1 101840 90
2009-04-02 06:26 51°14.918 2°53.505 7.8 9 8.1 101850 91
2009-04-02 06:27 51°14.999 2°53.219 7.3 9 8.1 101850 91
2009-04-02 06:28 51°15.085 2°52.937 6.2 7 8 101850 91
2009-04-02 06:29 51°15.179 2°52.665 7.5 8 8 101850 91
2009-04-02 06:30 51°15.267 2°52.39 6.8 9 8 101850 91
2009-04-02 06:31 51°15.341 2°52.104 7 8 8 101860 91
2009-04-02 06:32 51°15.41 2°51.817 6.4 11 8 101850 91
2009-04-02 06:33 51°15.463 2°51.525 6.1 17 8 101850 91
2009-04-02 06:34 51°15.518 2°51.228 6.9 8 8 101860 91
2009-04-02 06:35 51°15.563 2°50.925 6.9 15 8 101860 91
2009-04-02 06:36 51°15.638 2°50.644 7.3 7 8 101860 91
2009-04-02 06:37 51°15.729 2°50.364 7.1 7 8 101850 91
2009-04-02 06:38 51°15.806 2°50.07 6 13 8 101850 92
2009-04-02 06:39 51°15.865 2°49.778 6.2 18 8 101860 92
2009-04-02 06:40 51°15.898 2°49.477 4.6 11 8 101860 92
2009-04-02 06:41 51°15.923 2°49.171 5.8 21 8 101860 92
2009-04-02 06:42 51°15.945 2°48.865 6.9 20 8 101860 92
2009-04-02 06:43 51°15.969 2°48.56 6.9 20 8 101860 92
2009-04-02 06:44 51°15.997 2°48.255 5.3 18 8 101860 92
2009-04-02 06:45 51°16.021 2°47.953 5.2 19 8 101850 92
2009-04-02 06:46 51°16.047 2°47.645 5.6 25 7.9 101860 92
2009-04-02 06:47 51°16.077 2°47.332 6.7 22 7.9 101860 92
2009-04-02 06:48 51°16.105 2°47.028 6.3 17 8 101870 92
2009-04-02 06:49 51°16.12 2°46.725 3.3 23 8 101860 92
2009-04-02 06:50 51°16.054 2°46.45 2.9 39 8 101870 92
2009-04-02 06:51 51°15.964 2°46.193 1.5 22 8 101870 92
2009-04-02 06:52 51°15.881 2°45.933 2.1 21 8.1 101870 92
2009-04-02 06:53 51°15.805 2°45.662 3.2 38 8.1 101870 92
2009-04-02 06:54 51°15.742 2°45.383 2.2 37 8.1 101870 92
2009-04-02 06:55 51°15.738 2°45.086 4.9 12 8.1 101860 92
2009-04-02 06:56 51°15.826 2°44.812 9.2 7 8 101850 92
2009-04-02 06:57 51°15.963 2°44.581 9 3 8 101860 92
2009-04-02 06:58 51°16.11 2°44.364 8 2 8 101850 92
2009-04-02 06:59 51°16.259 2°44.153 9.4 5 7.9 101860 92
2009-04-02 07:00 51°16.408 2°43.942 9.1 5 7.9 101850 92
2009-04-02 07:01 51°16.554 2°43.723 8.8 3 7.9 101850 92
2009-04-02 07:02 51°16.699 2°43.504 8.2 359 7.9 101860 92
2009-04-02 07:03 51°16.843 2°43.288 9 1 7.9 101860 92
2009-04-02 07:04 51°16.985 2°43.064 8.1 4 7.9 101860 92
2009-04-02 07:05 51°17.123 2°42.835 8.6 6 7.9 101870 92
2009-04-02 07:06 51°17.261 2°42.599 7.1 7 7.9 101860 92
2009-04-02 07:07 51°17.402 2°42.363 9.3 7 7.9 101860 92
2009-04-02 07:08 51°17.545 2°42.126 10.3 8 7.9 101860 92
2009-04-02 07:09 51°17.687 2°41.89 9 8 7.9 101860 92
2009-04-02 07:10 51°17.833 2°41.659 7.9 2 7.9 101870 92
2009-04-02 07:11 51°17.976 2°41.431 7.3 1 7.9 101870 92
2009-04-02 07:12 51°18.114 2°41.202 8.7 3 7.9 101880 92
2009-04-02 07:13 51°18.248 2°40.969 8.3 6 7.9 101870 92
2009-04-02 07:14 51°18.383 2°40.735 8.3 6 7.9 101870 92
2009-04-02 07:15 51°18.521 2°40.503 7 5 7.9 101880 92
2009-04-02 07:16 51°18.654 2°40.271 8.7 7 7.9 101880 92
2009-04-02 07:17 51°18.783 2°40.028 8.1 6 7.9 101870 92
2009-04-02 07:18 51°18.913 2°39.785 8.3 3 8 101880 92
2009-04-02 07:19 51°19.046 2°39.538 8.4 2 7.9 101870 92
2009-04-02 07:20 51°19.177 2°39.291 7.7 6 7.9 101880 92
2009-04-02 07:21 51°19.304 2°39.04 6.5 2 7.9 101870 92
2009-04-02 07:22 51°19.422 2°38.78 9.5 9 7.9 101890 92
2009-04-02 07:23 51°19.536 2°38.514 7 9 7.9 101870 92
2009-04-02 07:24 51°19.645 2°38.239 7 4 7.9 101880 92
2009-04-02 07:25 51°19.756 2°37.964 7.3 7 7.9 101880 92
2009-04-02 07:26 51°19.869 2°37.695 7 7 7.9 101880 92
2009-04-02 07:27 51°19.982 2°37.428 6.8 5 7.8 101880 92
2009-04-02 07:28 51°20.093 2°37.158 7.1 6 7.9 101880 97
2009-04-02 07:29 51°20.204 2°36.888 9 8 7.9 101890 97
2009-04-02 07:30 51°20.313 2°36.62 7.8 7 7.9 101880 97
2009-04-02 07:31 51°20.424 2°36.351 8.7 8 7.9 101880 97
2009-04-02 07:32 51°20.534 2°36.081 7.3 6 7.8 101880 97
2009-04-02 07:33 51°20.644 2°35.811 6.9 6 7.8 101890 97
2009-04-02 07:34 51°20.757 2°35.547 6.9 9 7.9 101880 97
2009-04-02 07:35 51°20.819 2°35.25 4.3 12 7.8 101890 97
2009-04-02 07:36 51°20.863 2°34.943 6.4 14 7.9 101890 96
2009-04-02 07:37 51°20.912 2°34.629 6.5 16 7.9 101900 96
2009-04-02 07:38 51°20.967 2°34.317 6.3 9 7.9 101900 97
2009-04-02 07:39 51°21.02 2°34.005 6.5 9 7.9 101900 97
2009-04-02 07:40 51°21.095 2°33.705 7.9 10 7.9 101900 97
2009-04-02 07:41 51°21.174 2°33.411 7.9 16 7.9 101900 97
2009-04-02 07:42 51°21.25 2°33.115 7.7 14 7.9 101900 96
2009-04-02 07:43 51°21.352 2°32.837 8.2 5 7.9 101900 96
2009-04-02 07:44 51°21.514 2°32.644 12.4 360 7.9 101890 97
2009-04-02 07:45 51°21.693 2°32.485 12.8 358 7.9 101890 97
2009-04-02 07:46 51°21.869 2°32.322 10.3 354 7.9 101890 97
2009-04-02 07:47 51°22.043 2°32.153 9.6 357 7.9 101880 96
2009-04-02 07:48 51°22.223 2°32.013 11.3 356 7.9 101880 96
2009-04-02 07:49 51°22.41 2°31.89 10.3 356 7.9 101880 96
2009-04-02 07:50 51°22.595 2°31.765 14.5 356 7.9 101890 96
2009-04-02 07:51 51°22.782 2°31.644 11.9 354 7.9 101890 96
2009-04-02 07:52 51°22.97 2°31.525 13.2 355 7.9 101890 96
2009-04-02 07:53 51°23.157 2°31.407 12.3 358 7.8 101890 96
2009-04-02 07:54 51°23.328 2°31.255 10.9 360 7.8 101900 96
2009-04-02 07:55 51°23.475 2°31.044 10 1 7.8 101900 96
2009-04-02 07:56 51°23.583 2°30.816 8.3 11 7.8 101910 96
2009-04-02 07:57 51°23.635 2°30.545 6.5 14 7.8 101920 96
2009-04-02 07:58 51°23.675 2°30.309 6.4 21 7.9 101930 96
2009-04-02 07:59 51°23.734 2°30.181 7.6 359 7.9 101930 96
2009-04-02 08:00 51°23.79 2°30.185 10.3 337 7.9 101920 96
2009-04-02 08:01 51°23.814 2°30.227 8.8 20 7.9 101930 96
2009-04-02 08:02 51°23.816 2°30.245 8.1 20 8 101920 96
2009-04-02 08:03 51°23.813 2°30.249 8.1 252 8 101930 96
2009-04-02 08:04 51°23.811 2°30.25 7.9 254 8.1 101940 96
2009-04-02 08:05 51°23.808 2°30.247 9.7 257 8.1 101940 96
2009-04-02 08:06 51°23.805 2°30.244 8 258 8.1 101940 96
2009-04-02 08:07 51°23.803 2°30.24 9.6 255 8.1 101940 96
2009-04-02 08:08 51°23.801 2°30.237 7.8 257 8.1 101950 96
2009-04-02 08:09 51°23.797 2°30.232 8.3 257 8.2 101930 96
2009-04-02 08:10 51°23.794 2°30.227 11.1 253 8.1 101930 96
2009-04-02 08:11 51°23.791 2°30.22 9 255 8.1 101940 96
2009-04-02 08:12 51°23.79 2°30.213 9 259 8.2 101950 96
2009-04-02 08:13 51°23.787 2°30.206 9.3 259 8.2 101940 96
2009-04-02 08:14 51°23.784 2°30.201 10.2 256 8.2 101930 96
2009-04-02 08:15 51°23.781 2°30.195 8.7 256 8.2 101940 95
2009-04-02 08:16 51°23.778 2°30.187 8.4 253 8.2 101930 95
2009-04-02 08:17 51°23.775 2°30.179 8.3 256 8.2 101930 95
2009-04-02 08:18 51°23.773 2°30.171 9.4 255 8.2 101940 95
2009-04-02 08:19 51°23.751 2°30.18 6.2 263 8.2 101940 95
2009-04-02 08:20 51°23.688 2°30.16 4.2 24 8.2 101940 95
2009-04-02 08:21 51°23.649 2°30.06 6.7 38 8.2 101930 96
2009-04-02 08:22 51°23.66 2°29.986 8 22 8.1 101920 95
2009-04-02 08:23 51°23.684 2°29.946 9.9 17 8.1 101930 95
2009-04-02 08:24 51°23.7 2°29.919 9.2 16 8.1 101930 95
2009-04-02 08:25 51°23.715 2°29.887 7.9 23 8.1 101930 95
2009-04-02 08:26 51°23.724 2°29.862 8.5 23 8.1 101930 95
2009-04-02 08:27 51°23.73 2°29.839 7.4 17 8 101930 95
2009-04-02 08:28 51°23.737 2°29.816 9.6 16 8 101920 95
2009-04-02 08:29 51°23.74 2°29.799 7.9 16 8 101930 95
2009-04-02 08:30 51°23.737 2°29.781 8.1 18 8 101930 95
2009-04-02 08:31 51°23.733 2°29.764 8.1 24 8 101920 95
2009-04-02 08:32 51°23.729 2°29.748 8 29 8 101930 95
2009-04-02 08:33 51°23.726 2°29.733 7.8 31 8 101930 95
2009-04-02 08:34 51°23.719 2°29.726 9.1 29 8 101930 95
2009-04-02 08:35 51°23.722 2°29.698 7.9 17 8 101940 95
2009-04-02 08:36 51°23.735 2°29.667 9.5 15 8 101950 95
2009-04-02 08:37 51°23.745 2°29.638 8.2 5 8 101930 95
2009-04-02 08:38 51°23.786 2°29.631 10.6 338 8 101920 95
2009-04-02 08:39 51°23.802 2°29.676 9.9 27 8 101930 96
2009-04-02 08:40 51°23.779 2°29.715 10.5 23 8.1 101930 96
2009-04-02 08:41 51°23.763 2°29.758 9 21 8.1 101930 96
2009-04-02 08:42 51°23.751 2°29.786 9.5 20 8.1 101940 95
2009-04-02 08:43 51°23.742 2°29.795 9.2 22 8.2 101950 95
2009-04-02 08:44 51°23.734 2°29.793 8.6 247 8.2 101950 95
2009-04-02 08:45 51°23.727 2°29.784 8.8 250 8.3 101960 95
2009-04-02 08:46 51°23.72 2°29.771 8.6 253 8.3 101950 95
2009-04-02 08:47 51°23.709 2°29.77 8.4 24 8.3 101950 95
2009-04-02 08:48 51°23.699 2°29.782 8.4 19 8.3 101960 95
2009-04-02 08:49 51°23.692 2°29.785 6.4 20 8.3 101960 95
2009-04-02 08:50 51°23.684 2°29.791 9.6 26 8.3 101950 94
2009-04-02 08:51 51°23.688 2°29.82 7.6 334 8.3 101940 94
2009-04-02 08:52 51°23.709 2°29.83 7.9 359 8.2 101940 94
2009-04-02 08:53 51°23.73 2°29.809 7.1 3 8.1 101950 94
2009-04-02 08:54 51°23.737 2°29.786 5.6 5 8 101950 94
2009-04-02 08:55 51°23.738 2°29.762 7.4 14 8 101950 94
2009-04-02 08:56 51°23.733 2°29.74 7.4 21 8 101950 94
2009-04-02 08:57 51°23.726 2°29.72 7.3 28 8 101950 95
2009-04-02 08:58 51°23.72 2°29.7 6 30 8 101960 95
2009-04-02 08:59 51°23.718 2°29.671 8 23 8 101960 94
2009-04-02 09:00 51°23.737 2°29.632 7.7 358 8 101950 94
2009-04-02 09:01 51°23.767 2°29.614 7 344 8 101950 94
2009-04-02 09:02 51°23.789 2°29.643 8.2 26 8 101950 95
2009-04-02 09:03 51°23.774 2°29.697 7.7 25 8.1 101950 95
2009-04-02 09:04 51°23.76 2°29.748 9.1 27 8.1 101950 95
2009-04-02 09:05 51°23.746 2°29.784 8.4 23 8.2 101950 95
2009-04-02 09:06 51°23.736 2°29.819 8.1 25 8.2 101950 95
2009-04-02 09:07 51°23.727 2°29.832 7.5 22 8.2 101940 95
2009-04-02 09:08 51°23.716 2°29.832 9.2 23 8.2 101950 94
2009-04-02 09:09 51°23.706 2°29.821 8.2 250 8.2 101950 95
2009-04-02 09:10 51°23.695 2°29.805 9.2 20 8.3 101950 94
2009-04-02 09:11 51°23.682 2°29.787 8.7 256 8.3 101950 94
2009-04-02 09:12 51°23.665 2°29.785 7.7 21 8.4 101950 94
2009-04-02 09:13 51°23.65 2°29.805 7.7 24 8.4 101940 94
2009-04-02 09:14 51°23.647 2°29.829 8.9 327 8.4 101940 94
2009-04-02 09:15 51°23.665 2°29.839 7 353 8.3 101940 93
2009-04-02 09:16 51°23.69 2°29.817 8.1 346 8.2 101940 93
2009-04-02 09:17 51°23.713 2°29.813 7.3 338 8.1 101930 94
2009-04-02 09:18 51°23.728 2°29.807 8.1 338 8.1 101940 94
2009-04-02 09:19 51°23.742 2°29.801 7.6 338 8.1 101940 94
2009-04-02 09:20 51°23.747 2°29.791 9.1 330 8.2 101940 94
2009-04-02 09:21 51°23.743 2°29.771 7.5 328 8.2 101940 94
2009-04-02 09:22 51°23.74 2°29.767 7.6 24 8.2 101930 94
2009-04-02 09:23 51°23.726 2°29.777 8.8 18 8.2 101940 94
2009-04-02 09:24 51°23.713 2°29.788 7 25 8.2 101940 93
2009-04-02 09:25 51°23.699 2°29.786 9.5 26 8.2 101940 92
2009-04-02 09:26 51°23.684 2°29.774 7.6 21 8.3 101940 92
2009-04-02 09:27 51°23.669 2°29.755 8.4 256 8.4 101950 91
2009-04-02 09:28 51°23.655 2°29.733 8.2 258 8.4 101940 91
2009-04-02 09:29 51°23.631 2°29.74 7.9 19 8.4 101940 91
2009-04-02 09:30 51°23.648 2°29.821 11.4 331 8.4 101940 91
2009-04-02 09:31 51°23.726 2°29.946 13.2 329 8.3 101940 91
2009-04-02 09:32 51°23.816 2°30.137 15 329 8.3 101930 90
2009-04-02 09:33 51°23.922 2°30.369 13.1 328 8.2 101930 90
2009-04-02 09:34 51°24.033 2°30.601 13.5 329 8.2 101930 90
2009-04-02 09:35 51°24.145 2°30.832 14.1 329 8.2 101930 90
2009-04-02 09:36 51°24.255 2°31.063 13.6 329 8.2 101940 90
2009-04-02 09:37 51°24.365 2°31.295 15.5 329 8.2 101930 90
2009-04-02 09:38 51°24.477 2°31.525 12.7 329 8.2 101940 90
2009-04-02 09:39 51°24.59 2°31.757 12.8 329 8.2 101930 91
2009-04-02 09:40 51°24.699 2°31.987 15.8 329 8.2 101930 91
2009-04-02 09:41 51°24.808 2°32.215 14.4 327 8.2 101930 90
2009-04-02 09:42 51°24.917 2°32.44 14.1 329 8.1 101940 90
2009-04-02 09:43 51°25.027 2°32.668 15 329 8.1 101930 91
2009-04-02 09:44 51°25.14 2°32.891 14 329 8.1 101930 91
2009-04-02 09:45 51°25.25 2°33.119 15.8 326 8.2 101920 91
2009-04-02 09:46 51°25.363 2°33.344 13.7 330 8.1 101920 92
2009-04-02 09:47 51°25.477 2°33.566 15.7 328 8.1 101930 92
2009-04-02 09:48 51°25.59 2°33.792 15.1 328 8.1 101910 92
2009-04-02 09:49 51°25.701 2°34.018 15.7 330 8.1 101920 93
2009-04-02 09:50 51°25.809 2°34.245 14 327 8.1 101920 93
2009-04-02 09:51 51°25.905 2°34.481 13.5 324 8.1 101910 93
2009-04-02 09:52 51°26.003 2°34.725 16 326 8.1 101930 93
2009-04-02 09:53 51°26.099 2°34.968 14.1 326 8.1 101920 93
2009-04-02 09:54 51°26.196 2°35.213 15.7 325 8.1 101920 93
2009-04-02 09:55 51°26.289 2°35.46 14 324 8.1 101910 93
2009-04-02 09:56 51°26.384 2°35.696 12.8 327 8.1 101910 93
2009-04-02 09:57 51°26.481 2°35.94 15 325 8.1 101920 93
2009-04-02 09:58 51°26.577 2°36.184 14.6 326 8.1 101910 93
2009-04-02 09:59 51°26.673 2°36.432 13.3 326 8.1 101910 93
2009-04-02 10:00 51°26.767 2°36.679 14.7 327 8.1 101910 93
2009-04-02 10:01 51°26.862 2°36.925 16.6 325 8.1 101920 93
2009-04-02 10:02 51°26.953 2°37.166 13.7 326 8.1 101910 93
2009-04-02 10:03 51°27.049 2°37.414 13.5 325 8.1 101910 93
2009-04-02 10:04 51°27.143 2°37.657 13.2 328 8.1 101910 93
2009-04-02 10:05 51°27.239 2°37.904 15.2 325 8.1 101910 93
2009-04-02 10:06 51°27.333 2°38.149 14.2 324 8.1 101910 93
2009-04-02 10:07 51°27.426 2°38.39 13.3 324 8.1 101900 93
2009-04-02 10:08 51°27.52 2°38.631 15.8 324 8.1 101900 93
2009-04-02 10:09 51°27.615 2°38.876 12.8 326 8.1 101900 93
2009-04-02 10:10 51°27.709 2°39.122 13.8 323 8.1 101910 93
2009-04-02 10:11 51°27.804 2°39.367 15 324 8.1 101890 93
2009-04-02 10:12 51°27.902 2°39.614 13.5 324 8.1 101900 93
2009-04-02 10:13 51°27.999 2°39.861 15.5 326 8.1 101910 93
2009-04-02 10:14 51°28.094 2°40.11 14.6 324 8.1 101900 93
2009-04-02 10:15 51°28.189 2°40.357 15.1 325 8.1 101910 93
2009-04-02 10:16 51°28.285 2°40.602 15.3 325 8.1 101900 93
2009-04-02 10:17 51°28.379 2°40.848 14.4 324 8 101890 93
2009-04-02 10:18 51°28.454 2°41.109 13.1 322 8 101900 93
2009-04-02 10:19 51°28.53 2°41.37 14.3 321 8.1 101890 93
2009-04-02 10:20 51°28.606 2°41.63 13.5 323 8.1 101900 93
2009-04-02 10:21 51°28.682 2°41.892 13 323 8.1 101900 93
2009-04-02 10:22 51°28.76 2°42.152 14.3 325 8.1 101900 93
2009-04-02 10:23 51°28.854 2°42.394 13.2 328 8.1 101900 93
2009-04-02 10:24 51°28.976 2°42.61 14.6 328 8.1 101900 93
2009-04-02 10:25 51°29.097 2°42.823 15 324 8 101900 93
2009-04-02 10:26 51°29.212 2°43.04 13.3 326 8 101900 93
2009-04-02 10:27 51°29.311 2°43.275 12.8 323 8 101900 93
2009-04-02 10:28 51°29.385 2°43.529 11.9 321 8 101900 93
2009-04-02 10:29 51°29.436 2°43.8 14 317 8 101900 93
2009-04-02 10:30 51°29.462 2°44.085 11.6 316 8 101900 93
2009-04-02 10:31 51°29.485 2°44.37 13.7 316 8 101890 93
2009-04-02 10:32 51°29.512 2°44.654 14 317 8.1 101870 93
2009-04-02 10:33 51°29.537 2°44.937 14.3 316 8.1 101880 93
2009-04-02 10:34 51°29.563 2°45.218 14.6 316 8.1 101900 93
2009-04-02 10:35 51°29.593 2°45.496 12.5 318 8.1 101890 93
2009-04-02 10:36 51°29.622 2°45.775 12.9 318 8.1 101890 93
2009-04-02 10:37 51°29.658 2°46.048 13.1 320 8.1 101890 93
2009-04-02 10:38 51°29.697 2°46.321 13.8 320 8.1 101890 93
2009-04-02 10:39 51°29.735 2°46.595 15.4 319 8.1 101880 93
2009-04-02 10:40 51°29.772 2°46.871 15.1 317 8.1 101880 93
2009-04-02 10:41 51°29.809 2°47.146 13.5 320 8.1 101880 93
2009-04-02 10:42 51°29.849 2°47.424 13 318 8.1 101880 93
2009-04-02 10:43 51°29.888 2°47.704 14.5 318 8.1 101870 93
2009-04-02 10:44 51°29.933 2°47.979 15 319 8.1 101870 93
2009-04-02 10:45 51°29.978 2°48.253 13.3 319 8.1 101870 93
2009-04-02 10:46 51°30.02 2°48.527 13.2 319 8.1 101880 93
2009-04-02 10:47 51°30.063 2°48.802 13.8 321 8.1 101880 93
2009-04-02 10:48 51°30.106 2°49.074 12.2 320 8.1 101880 93
2009-04-02 10:49 51°30.153 2°49.351 14.9 321 8.1 101890 93
2009-04-02 10:50 51°30.195 2°49.62 12.1 317 8.1 101870 93
2009-04-02 10:51 51°30.229 2°49.836 12 320 8.1 101880 93
2009-04-02 10:52 51°30.273 2°49.858 8.1 353 8.1 101890 93
2009-04-02 10:53 51°30.318 2°49.795 8.8 357 8 101890 92
2009-04-02 10:54 51°30.366 2°49.737 9.3 351 7.9 101890 93
2009-04-02 10:55 51°30.415 2°49.694 8.5 346 7.8 101880 93
2009-04-02 10:56 51°30.463 2°49.663 9.2 345 7.8 101880 93
2009-04-02 10:57 51°30.479 2°49.632 9.3 351 7.8 101880 94
2009-04-02 10:58 51°30.478 2°49.595 9.3 353 7.7 101880 94
2009-04-02 10:59 51°30.468 2°49.552 8.8 -999 7.7 101880 94
2009-04-02 11:00 51°30.497 2°49.495 9.5 353 7.7 101870 94
2009-04-02 11:01 51°30.552 2°49.461 9.1 339 7.7 101870 94
2009-04-02 11:02 51°30.593 2°49.499 11.2 322 7.8 101880 94
2009-04-02 11:03 51°30.617 2°49.602 10.2 319 7.9 101870 95
2009-04-02 11:04 51°30.622 2°49.71 11.2 316 7.9 101870 95
2009-04-02 11:05 51°30.621 2°49.808 9.9 316 7.9 101870 94
2009-04-02 11:06 51°30.62 2°49.902 9.5 315 8 101860 94
2009-04-02 11:07 51°30.618 2°49.996 8.7 23 8 101860 94
2009-04-02 11:08 51°30.618 2°50.089 9.1 316 8 101860 94
2009-04-02 11:09 51°30.617 2°50.184 10.2 316 8 101860 94
2009-04-02 11:10 51°30.616 2°50.275 10.4 316 8 101860 94
2009-04-02 11:11 51°30.616 2°50.367 10.2 316 8 101860 94
2009-04-02 11:12 51°30.615 2°50.461 8.6 317 8 101860 94
2009-04-02 11:13 51°30.619 2°50.554 10.2 321 8.1 101860 94
2009-04-02 11:14 51°30.627 2°50.643 10.1 318 8.1 101840 94
2009-04-02 11:15 51°30.635 2°50.728 9.8 320 8.1 101850 94
2009-04-02 11:16 51°30.639 2°50.805 9 317 8.2 101850 94
2009-04-02 11:17 51°30.646 2°50.891 10.8 319 8.2 101850 93
2009-04-02 11:18 51°30.654 2°50.984 11.3 317 8.2 101850 93
2009-04-02 11:19 51°30.661 2°51.078 10.4 319 8.2 101850 93
2009-04-02 11:20 51°30.669 2°51.173 10 318 8.2 101850 93
2009-04-02 11:21 51°30.684 2°51.257 9.3 324 8.2 101850 93
2009-04-02 11:22 51°30.714 2°51.323 11.1 330 8.2 101850 93
2009-04-02 11:23 51°30.754 2°51.38 11.6 330 8.2 101850 93
2009-04-02 11:24 51°30.794 2°51.437 9.2 330 8.2 101860 93
2009-04-02 11:25 51°30.832 2°51.494 12.6 331 8.2 101860 93
2009-04-02 11:26 51°30.873 2°51.54 10.9 333 8.2 101850 93
2009-04-02 11:27 51°30.922 2°51.577 11.7 334 8.2 101850 93
2009-04-02 11:28 51°30.972 2°51.619 9.9 336 8.2 101850 93
2009-04-02 11:29 51°31.019 2°51.66 11.1 334 8.2 101850 93
2009-04-02 11:30 51°31.066 2°51.7 11.9 334 8.2 101850 93
2009-04-02 11:31 51°31.114 2°51.743 11.9 335 8.2 101850 92
2009-04-02 11:32 51°31.161 2°51.785 11.4 332 8.2 101840 93
2009-04-02 11:33 51°31.209 2°51.825 10.1 338 8.2 101850 93
2009-04-02 11:34 51°31.26 2°51.844 9.7 339 8.2 101840 93
2009-04-02 11:35 51°31.308 2°51.852 11.4 340 8.2 101840 92
2009-04-02 11:36 51°31.357 2°51.856 11.3 340 8.2 101840 93
2009-04-02 11:37 51°31.407 2°51.86 10.6 337 8.2 101840 93
2009-04-02 11:38 51°31.446 2°51.878 11.3 331 8.2 101850 93
2009-04-02 11:39 51°31.468 2°51.887 9.3 331 8.2 101850 92
2009-04-02 11:40 51°31.479 2°51.89 8.9 332 8.2 101840 93
2009-04-02 11:41 51°31.483 2°51.888 8.8 331 8.2 101850 93
2009-04-02 11:42 51°31.484 2°51.888 7.7 326 8.2 101840 92
2009-04-02 11:43 51°31.475 2°51.896 8.4 26 8.2 101840 93
2009-04-02 11:44 51°31.447 2°51.897 8.3 248 8.2 101830 92
2009-04-02 11:45 51°31.416 2°51.884 9.6 247 8.3 101830 93
2009-04-02 11:46 51°31.386 2°51.87 10.1 27 8.4 101830 93
2009-04-02 11:47 51°31.362 2°51.908 11.3 23 8.3 101820 92
2009-04-02 11:48 51°31.351 2°52.023 10.2 27 8.3 101810 92
2009-04-02 11:49 51°31.337 2°52.203 12 28 8.2 101810 92
2009-04-02 11:50 51°31.315 2°52.41 13 23 8.2 101790 92
2009-04-02 11:51 51°31.291 2°52.563 11.2 20 8.1 101800 92
2009-04-02 11:52 51°31.271 2°52.613 11 24 8.1 101810 92
2009-04-02 11:53 51°31.248 2°52.63 11.1 23 8.1 101810 93
2009-04-02 11:54 51°31.235 2°52.643 8.6 322 8.2 101820 93
2009-04-02 11:55 51°31.209 2°52.623 7.4 26 8.2 101810 93
2009-04-02 11:56 51°31.189 2°52.602 8.5 323 8.2 101810 93
2009-04-02 11:57 51°31.188 2°52.597 8.9 332 8.2 101810 93
2009-04-02 11:58 51°31.189 2°52.594 10.9 330 8.2 101810 93
2009-04-02 11:59 51°31.188 2°52.596 8.3 325 8.2 101820 93
2009-04-02 12:00 51°31.187 2°52.598 8.7 328 8.2 101810 93
2009-04-02 12:01 51°31.186 2°52.598 9.4 329 8.2 101810 93
2009-04-02 12:02 51°31.188 2°52.597 8.6 330 8.2 101810 93
2009-04-02 12:03 51°31.188 2°52.595 8.6 330 8.2 101810 93
2009-04-02 12:04 51°31.187 2°52.598 8.4 327 8.2 101800 93
2009-04-02 12:05 51°31.186 2°52.599 10.6 329 8.2 101810 93
2009-04-02 12:06 51°31.188 2°52.596 9.9 331 8.2 101800 93
2009-04-02 12:07 51°31.19 2°52.592 8.1 332 8.2 101810 93
2009-04-02 12:08 51°31.19 2°52.591 8.9 325 8.2 101800 93
2009-04-02 12:09 51°31.188 2°52.595 8.9 327 8.2 101810 93
2009-04-02 12:10 51°31.188 2°52.595 8.7 329 8.2 101800 93
2009-04-02 12:11 51°31.188 2°52.596 8.6 330 8.2 101800 93
2009-04-02 12:12 51°31.188 2°52.594 9 330 8.2 101800 93
2009-04-02 12:13 51°31.187 2°52.595 8.8 330 8.2 101800 93
2009-04-02 12:14 51°31.186 2°52.598 10.9 327 8.2 101800 93
2009-04-02 12:15 51°31.186 2°52.598 8.3 330 8.2 101790 93
2009-04-02 12:16 51°31.187 2°52.596 10.1 330 8.2 101790 93
2009-04-02 12:17 51°31.188 2°52.595 10 330 8.2 101790 93
2009-04-02 12:18 51°31.187 2°52.597 9.4 328 8.2 101780 93
2009-04-02 12:19 51°31.186 2°52.598 8.3 329 8.2 101790 93
2009-04-02 12:20 51°31.186 2°52.598 10.6 331 8.2 101780 93
2009-04-02 12:21 51°31.187 2°52.596 8.5 330 8.2 101780 93
2009-04-02 12:22 51°31.187 2°52.596 8.4 328 8.2 101770 93
2009-04-02 12:23 51°31.185 2°52.601 10.8 320 8.2 101770 93
2009-04-02 12:24 51°31.185 2°52.602 9 330 8.2 101770 93
2009-04-02 12:25 51°31.186 2°52.597 10.2 333 8.2 101770 92
2009-04-02 12:26 51°31.189 2°52.594 10 329 8.2 101770 93
2009-04-02 12:27 51°31.188 2°52.595 11.9 328 8.2 101770 93
2009-04-02 12:28 51°31.187 2°52.598 8.7 328 8.2 101780 93
2009-04-02 12:29 51°31.187 2°52.597 10.7 329 8.3 101770 93
2009-04-02 12:30 51°31.188 2°52.594 9.8 331 8.3 101780 93
2009-04-02 12:31 51°31.189 2°52.592 8.9 328 8.2 101780 92
2009-04-02 12:32 51°31.186 2°52.598 9.9 329 8.3 101770 92
2009-04-02 12:33 51°31.185 2°52.601 8.2 330 8.3 101780 92
2009-04-02 12:34 51°31.186 2°52.598 9.2 331 8.3 101770 92
2009-04-02 12:35 51°31.188 2°52.593 9.3 331 8.3 101780 92
2009-04-02 12:36 51°31.186 2°52.596 9.7 325 8.3 101770 92
2009-04-02 12:37 51°31.185 2°52.599 9.5 331 8.3 101780 92
2009-04-02 12:38 51°31.185 2°52.599 9 330 8.3 101770 92
2009-04-02 12:39 51°31.186 2°52.598 8.4 329 8.3 101780 92
2009-04-02 12:40 51°31.184 2°52.599 9.4 328 8.3 101770 92
2009-04-02 12:41 51°31.185 2°52.598 10.7 332 8.3 101770 92
2009-04-02 12:42 51°31.185 2°52.598 9.9 327 8.3 101770 92
2009-04-02 12:43 51°31.185 2°52.598 9.1 329 8.3 101770 92
2009-04-02 12:44 51°31.187 2°52.599 10.5 332 8.3 101760 92
2009-04-02 12:45 51°31.194 2°52.605 11.2 335 8.3 101760 92
2009-04-02 12:46 51°31.201 2°52.61 9.9 333 8.3 101760 92
2009-04-02 12:47 51°31.209 2°52.617 11 335 8.4 101770 92
2009-04-02 12:48 51°31.213 2°52.62 8.8 325 8.4 101770 92
2009-04-02 12:49 51°31.2 2°52.61 9.9 324 8.4 101770 92
2009-04-02 12:50 51°31.173 2°52.592 7.6 28 8.4 101760 92
2009-04-02 12:51 51°31.141 2°52.567 8.3 245 8.4 101760 92
2009-04-02 12:52 51°31.109 2°52.537 9.6 256 8.4 101760 92
2009-04-02 12:53 51°31.077 2°52.506 7.4 262 8.4 101760 92
2009-04-02 12:54 51°31.045 2°52.475 8.9 261 8.4 101760 92
2009-04-02 12:55 51°31.015 2°52.446 8.7 262 8.4 101760 92
2009-04-02 12:56 51°30.984 2°52.416 10.1 259 8.4 101760 92
2009-04-02 12:57 51°30.953 2°52.386 11.5 258 8.4 101770 92
2009-04-02 12:58 51°30.924 2°52.356 9.8 261 8.5 101760 92
2009-04-02 12:59 51°30.893 2°52.326 8.1 260 8.4 101760 91
2009-04-02 13:00 51°30.863 2°52.295 9.4 258 8.5 101760 91
2009-04-02 13:01 51°30.829 2°52.277 9.9 249 8.5 101770 91
2009-04-02 13:02 51°30.819 2°52.344 10.7 324 8.5 101760 91
2009-04-02 13:03 51°30.87 2°52.515 13.7 324 8.5 101760 91
2009-04-02 13:04 51°30.932 2°52.72 12.5 324 8.5 101730 91
2009-04-02 13:05 51°31.003 2°52.942 15.8 323 8.5 101740 91
2009-04-02 13:06 51°31.081 2°53.185 13.3 325 8.5 101740 91
2009-04-02 13:07 51°31.164 2°53.425 14.8 328 8.5 101740 91
2009-04-02 13:08 51°31.256 2°53.657 13.1 325 8.5 101740 91
2009-04-02 13:09 51°31.346 2°53.884 13.6 327 8.5 101740 91
2009-04-02 13:10 51°31.437 2°54.113 15.3 327 8.6 101740 91
2009-04-02 13:11 51°31.529 2°54.34 13.5 328 8.6 101730 91
2009-04-02 13:12 51°31.621 2°54.57 14.6 326 8.5 101730 91
2009-04-02 13:13 51°31.712 2°54.805 13.2 326 8.5 101720 90
2009-04-02 13:14 51°31.8 2°55.03 13.7 326 8.5 101740 91
2009-04-02 13:15 51°31.862 2°55.2 11.1 323 8.5 101730 91
2009-04-02 13:16 51°31.896 2°55.306 10 324 8.6 101740 91
2009-04-02 13:17 51°31.916 2°55.381 11.1 325 8.5 101740 91
2009-04-02 13:18 51°31.943 2°55.376 9.2 359 8.5 101740 90
2009-04-02 13:19 51°31.94 2°55.324 8.3 3 8.4 101750 90
2009-04-02 13:20 51°31.923 2°55.281 7.2 5 8.3 101740 91
2009-04-02 13:21 51°31.901 2°55.239 8.4 9 8.3 101740 91
2009-04-02 13:22 51°31.874 2°55.203 6.9 14 8.3 101740 92
2009-04-02 13:23 51°31.842 2°55.17 8.6 20 8.3 101750 92
2009-04-02 13:24 51°31.81 2°55.142 7.8 27 8.4 101750 92
2009-04-02 13:25 51°31.783 2°55.078 5.6 42 8.4 101740 92
2009-04-02 13:26 51°31.719 2°55.012 6.8 20 8.4 101750 92
2009-04-02 13:27 51°31.655 2°55.014 8.7 264 8.4 101750 92
2009-04-02 13:28 51°31.614 2°55.006 9 258 8.5 101750 92
2009-04-02 13:29 51°31.577 2°54.994 10.3 252 8.6 101750 92
2009-04-02 13:30 51°31.545 2°54.978 9.2 252 8.6 101750 92
2009-04-02 13:31 51°31.514 2°54.958 7.4 253 8.7 101740 91
2009-04-02 13:32 51°31.483 2°54.937 10 255 8.7 101740 91
2009-04-02 13:33 51°31.451 2°54.916 10.1 255 8.7 101740 91
2009-04-02 13:34 51°31.42 2°54.894 8.8 254 8.8 101740 90
2009-04-02 13:35 51°31.388 2°54.87 9.9 255 8.8 101740 90
2009-04-02 13:36 51°31.358 2°54.845 8.6 253 8.8 101740 90
2009-04-02 13:37 51°31.327 2°54.818 8.3 257 8.8 101750 90
2009-04-02 13:38 51°31.297 2°54.791 9.1 259 8.8 101750 90
2009-04-02 13:39 51°31.266 2°54.765 5.3 260 8.8 101740 90
2009-04-02 13:40 51°31.236 2°54.74 5.8 262 8.8 101740 90
2009-04-02 13:41 51°31.206 2°54.715 7.5 260 8.8 101730 88
2009-04-02 13:42 51°31.176 2°54.692 9.2 258 8.7 101730 88
2009-04-02 13:43 51°31.145 2°54.667 8.7 258 8.7 101730 89
2009-04-02 13:44 51°31.115 2°54.644 9.1 259 8.8 101730 89
2009-04-02 13:45 51°31.084 2°54.62 9.4 260 8.8 101740 89
2009-04-02 13:46 51°31.053 2°54.601 9.7 253 8.7 101740 89
2009-04-02 13:47 51°31.021 2°54.631 9.9 22 8.8 101730 89
2009-04-02 13:48 51°31.037 2°54.67 10.8 339 8.7 101740 89
2009-04-02 13:49 51°31.152 2°54.749 14.3 333 8.7 101700 89
2009-04-02 13:50 51°31.283 2°54.866 12.7 331 8.7 101730 89
2009-04-02 13:51 51°31.415 2°54.988 13.6 333 8.7 101720 88
2009-04-02 13:52 51°31.541 2°55.107 12.3 334 8.6 101720 89
2009-04-02 13:53 51°31.636 2°55.19 10.2 332 8.6 101720 89
2009-04-02 13:54 51°31.671 2°55.213 8.9 328 8.6 101730 90
2009-04-02 13:55 51°31.68 2°55.234 7.5 328 8.6 101730 90
2009-04-02 13:56 51°31.681 2°55.239 7.8 332 8.6 101730 90
2009-04-02 13:57 51°31.678 2°55.236 9 332 8.6 101730 90
2009-04-02 13:58 51°31.67 2°55.23 8.6 327 8.6 101730 90
2009-04-02 13:59 51°31.663 2°55.226 7.1 328 8.6 101730 90
2009-04-02 14:00 51°31.665 2°55.241 9.9 329 8.6 101730 90
2009-04-02 14:01 51°31.703 2°55.284 9.9 328 8.7 101710 89
2009-04-02 14:02 51°31.756 2°55.338 9.5 330 8.6 101730 90
2009-04-02 14:03 51°31.815 2°55.401 8.7 328 8.6 101730 90
2009-04-02 14:04 51°31.856 2°55.401 7.7 352 8.6 101720 90
2009-04-02 14:05 51°31.859 2°55.354 6.4 4 8.4 101730 90
2009-04-02 14:06 51°31.847 2°55.307 6 7 8.3 101720 90
2009-04-02 14:07 51°31.83 2°55.272 7.3 7 8.3 101720 91
2009-04-02 14:08 51°31.809 2°55.238 5.8 7 8.3 101720 91
2009-04-02 14:09 51°31.784 2°55.213 7.2 10 8.3 101720 92
2009-04-02 14:10 51°31.758 2°55.187 6.8 16 8.2 101720 92
2009-04-02 14:11 51°31.73 2°55.166 7.4 21 8.3 101730 92
2009-04-02 14:12 51°31.701 2°55.147 6.8 25 8.3 101720 92
2009-04-02 14:13 51°31.673 2°55.131 6.8 29 8.3 101720 92
2009-04-02 14:14 51°31.644 2°55.113 7 24 8.3 101710 92
2009-04-02 14:15 51°31.616 2°55.094 6.7 26 8.3 101720 92
2009-04-02 14:16 51°31.588 2°55.075 6.4 28 8.3 101710 92
2009-04-02 14:17 51°31.566 2°55.018 6.6 23 8.3 101720 92
2009-04-02 14:18 51°31.536 2°54.889 5 26 8.3 101720 92
2009-04-02 14:19 51°31.474 2°54.706 4.6 24 8.3 101720 93
2009-04-02 14:20 51°31.379 2°54.451 3.6 19 8.3 101720 93
2009-04-02 14:21 51°31.268 2°54.154 4.2 21 8.3 101720 93
2009-04-02 14:22 51°31.162 2°53.864 4.5 19 8.3 101720 93
2009-04-02 14:23 51°31.046 2°53.586 4.2 25 8.4 101720 93
2009-04-02 14:24 51°30.9 2°53.341 2.2 21 8.4 101720 93
2009-04-02 14:25 51°30.727 2°53.136 1.7 25 8.4 101720 93
2009-04-02 14:26 51°30.553 2°52.939 2.9 22 8.5 101720 93
2009-04-02 14:27 51°30.378 2°52.736 1.6 45 8.5 101720 93
2009-04-02 14:28 51°30.197 2°52.581 3.2 268 8.6 101720 93
2009-04-02 14:29 51°29.994 2°52.558 3.6 261 8.7 101720 93
2009-04-02 14:30 51°29.786 2°52.558 3.3 261 8.7 101710 92
2009-04-02 14:31 51°29.583 2°52.556 4.4 257 8.8 101700 92
2009-04-02 14:32 51°29.372 2°52.517 4.1 260 8.8 101710 92
2009-04-02 14:33 51°29.167 2°52.463 2.8 262 8.8 101700 92
2009-04-02 14:34 51°28.959 2°52.41 3 258 8.9 101700 92
2009-04-02 14:35 51°28.75 2°52.354 2.2 262 8.9 101700 91
2009-04-02 14:36 51°28.539 2°52.296 3.1 262 8.9 101700 91
2009-04-02 14:37 51°28.328 2°52.241 3.8 268 8.9 101700 91
2009-04-02 14:38 51°28.121 2°52.188 3 330 8.9 101700 91
2009-04-02 14:39 51°27.91 2°52.132 2.4 260 8.9 101690 91
2009-04-02 14:40 51°27.702 2°52.085 3.1 263 8.9 101690 91
2009-04-02 14:41 51°27.487 2°52.035 2.4 267 9 101690 90
2009-04-02 14:42 51°27.281 2°51.992 2.2 266 9 101690 90
2009-04-02 14:43 51°27.072 2°51.95 3.1 261 9 101680 90
2009-04-02 14:44 51°26.864 2°51.965 4.8 253 9 101690 90
2009-04-02 14:45 51°26.653 2°51.99 4.4 257 9 101680 90
2009-04-02 14:46 51°26.446 2°51.998 2.6 261 9 101680 90
2009-04-02 14:47 51°26.247 2°52.007 4.2 258 9.1 101680 90
2009-04-02 14:48 51°26.034 2°52.015 3.4 260 9.1 101670 90
2009-04-02 14:49 51°25.829 2°52.024 3.6 260 9.1 101670 90
2009-04-02 14:50 51°25.627 2°52.034 3.4 257 9.1 101670 89
2009-04-02 14:51 51°25.422 2°52.053 4.2 256 9.1 101670 90
2009-04-02 14:52 51°25.221 2°52.095 4.1 254 9.2 101670 90
2009-04-02 14:53 51°25.014 2°52.131 3.5 254 9.2 101660 90
2009-04-02 14:54 51°24.815 2°52.173 5.3 258 9.3 101660 89
2009-04-02 14:55 51°24.611 2°52.215 5.7 255 9.3 101650 89
2009-04-02 14:56 51°24.403 2°52.26 4.9 255 9.3 101660 89
2009-04-02 14:57 51°24.202 2°52.307 6 252 9.3 101650 89
2009-04-02 14:58 51°23.997 2°52.355 6.3 255 9.3 101650 89
2009-04-02 14:59 51°23.795 2°52.41 5.9 261 9.3 101640 88
2009-04-02 15:00 51°23.589 2°52.461 5.9 257 9.3 101640 88
2009-04-02 15:01 51°23.389 2°52.486 3.5 262 9.3 101650 88
2009-04-02 15:02 51°23.185 2°52.498 5.6 258 9.3 101640 88
2009-04-02 15:03 51°22.98 2°52.494 4 262 9.2 101640 87
2009-04-02 15:04 51°22.776 2°52.476 3.4 262 9.2 101640 88
2009-04-02 15:05 51°22.569 2°52.461 3.3 270 9.1 101630 87
2009-04-02 15:06 51°22.37 2°52.452 2.6 265 9.1 101630 88
2009-04-02 15:07 51°22.165 2°52.447 3.4 262 9.1 101630 88
2009-04-02 15:08 51°21.967 2°52.433 3.7 266 9.1 101630 88
2009-04-02 15:09 51°21.762 2°52.431 3.5 262 9 101620 88
2009-04-02 15:10 51°21.563 2°52.413 2.5 263 9 101620 88
2009-04-02 15:11 51°21.357 2°52.378 2.8 265 9 101620 88
2009-04-02 15:12 51°21.154 2°52.337 3.8 24 9 101620 88
2009-04-02 15:13 51°20.953 2°52.311 2.2 265 9 101620 88
2009-04-02 15:14 51°20.747 2°52.286 2.8 29 9 101620 88
2009-04-02 15:15 51°20.547 2°52.252 2.6 22 9 101620 89
2009-04-02 15:16 51°20.343 2°52.22 2.7 265 9.1 101610 89
2009-04-02 15:17 51°20.145 2°52.191 2.9 268 9.1 101610 89
2009-04-02 15:18 51°19.943 2°52.159 2.4 26 9.1 101610 89
2009-04-02 15:19 51°19.748 2°52.127 2.5 32 9.1 101610 89
2009-04-02 15:20 51°19.548 2°52.093 1.9 261 9.1 101610 89
2009-04-02 15:21 51°19.351 2°52.057 2 266 9.1 101610 89
2009-04-02 15:22 51°19.15 2°52.054 2.1 260 9.1 101610 89
2009-04-02 15:23 51°18.945 2°52.058 3.3 268 9.1 101600 89
2009-04-02 15:24 51°18.748 2°52.059 3 261 9.1 101600 89
2009-04-02 15:25 51°18.544 2°52.062 2.4 267 9.1 101600 89
2009-04-02 15:26 51°18.349 2°52.062 3.2 257 9.1 101590 89
2009-04-02 15:27 51°18.146 2°52.068 3 267 9.1 101590 88
2009-04-02 15:28 51°17.948 2°52.074 3.6 262 9.1 101590 88
2009-04-02 15:29 51°17.748 2°52.077 2.9 266 9.1 101590 88
2009-04-02 15:30 51°17.55 2°52.087 4.2 262 9.1 101590 88
2009-04-02 15:31 51°17.348 2°52.094 2.7 267 9.1 101590 88
2009-04-02 15:32 51°17.151 2°52.146 8.6 256 9.1 101580 89
2009-04-02 15:33 51°16.972 2°52.292 9.2 254 9.1 101570 89
2009-04-02 15:34 51°16.8 2°52.446 8.5 254 9.2 101570 89
2009-04-02 15:35 51°16.622 2°52.597 7.6 250 9.3 101570 89
2009-04-02 15:36 51°16.445 2°52.748 8.4 256 9.3 101570 89
2009-04-02 15:37 51°16.267 2°52.893 7.8 256 9.3 101570 89
2009-04-02 15:38 51°16.084 2°53.033 7.4 258 9.3 101570 88
2009-04-02 15:39 51°15.905 2°53.174 6.9 253 9.4 101570 88
2009-04-02 15:40 51°15.729 2°53.316 5.6 256 9.4 101560 88
2009-04-02 15:41 51°15.544 2°53.454 5.7 251 9.4 101570 88
2009-04-02 15:42 51°15.368 2°53.591 5.2 251 9.4 101560 88
2009-04-02 15:43 51°15.187 2°53.732 5.9 255 9.5 101570 88
2009-04-02 15:44 51°15.014 2°53.881 8.2 252 9.5 101560 88
2009-04-02 15:45 51°14.865 2°54.085 8.8 24 9.5 101560 88
2009-04-02 15:46 51°14.717 2°54.295 8.1 245 9.5 101560 88
2009-04-02 15:47 51°14.581 2°54.525 9.3 26 9.5 101550 88
2009-04-02 15:48 51°14.459 2°54.781 8.4 20 9.5 101550 88
2009-04-02 15:49 51°14.358 2°55.053 9 26 9.5 101540 89
2009-04-02 15:50 51°14.243 2°55.27 7.6 19 9.5 101550 89
2009-04-02 15:51 51°14.124 2°55.407 5.5 24 9.5 101570 89
2009-04-02 15:52 51°13.997 2°55.5 5.5 257 9.6 101570 89
2009-04-02 15:53 51°13.89 2°55.578 3.5 254 9.7 101570 90
2009-04-02 15:54 51°13.791 2°55.664 4.7 246 9.8 101570 89
2009-04-02 15:55 51°13.723 2°55.776 4 26 9.8 101560 89
2009-04-02 15:56 51°13.677 2°55.889 3.5 332 10 101550 89
2009-04-02 15:57 51°13.665 2°55.953 4.9 258 10.1 101560 89